FW9390 Weather Reports


time (UTC)temp
C
wind
direction
speed
KPH
gust
KPH
rain 1hr
cm
rain 24hr
cm
rain mn
cm
humidity
%
barometer
mb
20260508071544 10 81 4.8 17.7 0.03 0.18 0.18 92 1014.6
20260508070042 9 49 4.8 19.3 0.03 0.18 0.18 92 1014.5
20260508064540 9 24 14.5 25.7 0.00 0.18 0.18 92 1014.3
20260508063041 9 45 8.0 17.7 0.00 0.18 0.18 91 1014.5
20260508061544 10 90 4.8 14.5 0.00 0.15 0.15 91 1014.6
20260508060043 10 69 6.4 14.5 0.00 0.15 0.15 92 1014.5
20260508054600 10 86 6.4 14.5 0.00 0.15 0.15 92 1014.4
20260508053041 9 68 3.2 12.9 0.00 0.15 0.15 92 1014.4
20260508051539 9 47 4.8 11.3 0.00 0.15 0.15 91 1014.3
20260508050047 8 101 3.2 11.3 0.03 0.15 0.15 91 1014.3
20260508044600 9 54 4.8 14.5 0.00 0.13 0.13 91 1014.0
20260508043043 9 64 4.8 16.1 0.03 0.13 0.13 91 1014.1
20260508041549 9 63 6.4 12.9 0.03 0.13 0.13 91 1014.1
20260508040043 9 94 4.8 17.7 0.03 0.10 0.10 90 1014.1
20260508034544 10 111 6.4 16.1 0.03 0.10 0.10 89 1014.4
20260508033045 9 81 4.8 12.9 0.00 0.08 0.08 89 1014.2
20260508031555 9 45 6.4 14.5 0.03 0.08 0.08 89 1014.1
20260508030051 10 42 4.8 14.5 0.05 0.08 0.08 88 1014.3
20260508024540 9 101 3.2 9.7 0.08 0.08 0.08 86 1014.4
20260508023043 9 70 1.6 9.7 0.08 0.08 0.08 85 1014.5
20260508021543 10 89 3.2 19.3 0.03 0.03 0.03 85 1014.5
20260508020044 10 47 3.2 12.9 0.00 0.00 0.00 83 1014.5
20260508014543 10 82 3.2 11.3 0.00 0.00 0.00 79 1014.6
20260508013042 10 92 3.2 6.4 0.00 0.00 0.00 81 1014.6
20260508011539 10 103 4.8 11.3 0.00 0.00 0.00 82 1014.5
20260508010042 10 119 9.7 19.3 0.00 0.00 0.00 86 1014.7
20260508004539 11 116 4.8 16.1 0.00 0.00 0.00 89 1014.7
20260508003058 11 108 4.8 12.9 0.00 0.00 0.00 89 1014.7
20260508001544 11 94 3.2 9.7 0.00 0.00 0.00 89 1014.7
20260508000041 11 99 3.2 9.7 0.00 0.00 0.00 89 1014.6
20260507234541 11 86 3.2 6.4 0.00 0.00 0.00 88 1014.7
20260507233040 11 117 3.2 9.7 0.00 0.00 0.00 88 1014.8
20260507231547 11 109 1.6 6.4 0.00 0.00 0.00 88 1014.8
20260507230044 11 112 3.2 9.7 0.00 0.00 0.00 88 1014.9
20260507224557 10 121 4.8 12.9 0.00 0.00 0.00 89 1015.0
20260507223046 10 118 1.6 6.4 0.00 0.00 0.00 89 1014.9
20260507221541 10 115 0.0 4.8 0.00 0.00 0.00 89 1014.9
20260507220044 10 0 1.6 4.8 0.00 0.00 0.00 88 1014.8
20260507214542 10 118 3.2 6.4 0.00 0.00 0.00 86 1014.8
20260507213048 10 142 1.6 6.4 0.00 0.00 0.00 86 1015.0
20260507211542 10 142 1.6 4.8 0.00 0.00 0.00 87 1014.8
20260507210106 10 0 0.0 3.2 0.00 0.00 0.00 88 1014.9
20260507204538 10 146 0.0 6.4 0.00 0.00 0.00 88 1014.7
20260507203045 11 146 4.8 14.5 0.00 0.00 0.00 87 1014.7
20260507201544 11 0 1.6 6.4 0.00 0.00 0.00 85 1014.5
20260507200056 11 103 0.0 3.2 0.00 0.00 0.00 83 1014.3
20260507194542 10 0 0.0 3.2 0.00 0.00 0.00 83 1014.2
20260507193103 10 103 1.6 6.4 0.00 0.00 0.00 83 1014.1
20260507191542 11 103 1.6 4.8 0.00 0.00 0.00 82 1014.0
20260507190040 11 103 1.6 4.8 0.00 0.00 0.00 81 1014.1
20260507184544 11 103 0.0 3.2 0.00 0.00 0.00 80 1014.1
20260507183049 11 103 1.6 4.8 0.00 0.00 0.00 78 1014.2
20260507181543 12 126 0.0 1.6 0.00 0.00 0.00 79 1014.2
20260507180040 11 126 1.6 11.3 0.00 0.00 0.00 79 1014.3
20260507174546 11 120 8.0 14.5 0.00 0.00 0.00 78 1014.2
20260507173101 12 160 8.0 12.9 0.00 0.00 0.00 77 1014.2
20260507171546 12 128 6.4 14.5 0.00 0.00 0.00 79 1014.3
20260507170048 12 141 9.7 24.1 0.00 0.00 0.00 79 1014.3
20260507164548 12 157 12.9 20.9 0.00 0.00 0.00 78 1014.2
20260507163040 12 154 8.0 16.1 0.00 0.00 0.00 81 1014.3
20260507161553 12 145 9.7 14.5 0.00 0.00 0.00 79 1014.2
20260507160057 12 150 12.9 24.1 0.00 0.00 0.00 81 1014.3
20260507154546 13 143 9.7 16.1 0.00 0.00 0.00 75 1014.3
20260507153044 12 179 12.9 20.9 0.00 0.00 0.00 79 1014.4
20260507151540 12 157 11.3 17.7 0.00 0.00 0.00 78 1014.4
20260507150038 13 155 8.0 14.5 0.00 0.00 0.00 78 1014.3
20260507144548 12 186 4.8 9.7 0.00 0.00 0.00 78 1014.3
20260507143045 12 139 4.8 11.3 0.00 0.00 0.00 79 1014.4
20260507141549 12 191 4.8 9.7 0.00 0.00 0.00 78 1014.5
20260507140043 12 186 4.8 9.7 0.00 0.00 0.00 78 1014.8
20260507134544 12 161 4.8 9.7 0.00 0.00 0.00 80 1014.8
20260507133045 12 162 4.8 9.7 0.00 0.00 0.00 79 1014.8
20260507131545 12 140 4.8 9.7 0.00 0.00 0.00 79 1014.9
20260507130044 13 159 6.4 14.5 0.00 0.00 0.00 77 1015.0
20260507124543 13 187 8.0 12.9 0.00 0.00 0.00 78 1014.9
20260507123045 13 159 6.4 14.5 0.00 0.00 0.00 79 1014.9
20260507121541 13 137 6.4 14.5 0.00 0.00 0.00 76 1015.0
20260507120038 13 161 9.7 17.7 0.00 0.00 0.00 78 1014.9
20260507114543 13 194 8.0 16.1 0.00 0.00 0.00 79 1014.9
20260507113044 13 175 11.3 17.7 0.00 0.00 0.00 78 1014.9
20260507111545 13 168 11.3 20.9 0.00 0.00 0.00 79 1014.9
20260507110043 12 152 12.9 19.3 0.00 0.00 0.00 79 1014.9
20260507104541 12 144 12.9 22.5 0.00 0.00 0.00 81 1015.0
20260507103038 11 148 12.9 22.5 0.00 0.00 0.00 82 1015.0
20260507101538 12 159 12.9 24.1 0.00 0.00 0.00 83 1014.9
20260507100044 12 132 12.9 25.7 0.00 0.00 0.00 81 1015.0
20260507094544 12 134 14.5 29.0 0.00 0.00 0.00 82 1014.8
20260507093045 11 126 17.7 29.0 0.00 0.00 0.00 83 1014.7
20260507091540 11 142 19.3 27.4 0.00 0.00 0.00 83 1014.7
20260507090039 11 123 24.1 30.6 0.00 0.00 0.00 84 1014.7
20260507084541 11 142 16.1 30.6 0.00 0.00 0.00 84 1014.6
20260507083040 11 138 25.7 33.8 0.00 0.00 0.00 85 1014.5
20260507081543 11 144 16.1 27.4 0.00 0.00 0.00 84 1014.5
20260507080042 11 138 12.9 27.4 0.00 0.00 0.00 85 1014.5
20260507074542 10 117 12.9 32.2 0.00 0.00 0.00 86 1014.4
20260507073040 10 116 14.5 30.6 0.00 0.00 0.00 87 1014.4